Regional Weather Roundup
Issued by NWS

Home | Current Version | Previous Version | Graphics & Text | Print | Product List | Glossary On
Versions: 1 2 3 4 5 6 7 8 9 10 11 12 13 14 15 16 17 18 19 20 21 22 23 24 25 26 27 28 29 30 31 32 33 34 35 36 37 38 39 40 41 42 43 44 45 46 47 48 49 50
000
ASUS43 KFSD 251210
RWRSD

WEATHER ROUNDUP FOR SOUTH DAKOTA
NATIONAL WEATHER SERVICE SIOUX FALLS SD
700 AM CDT SAT APR 25 2015

NOTE: "FAIR" INDICATES FEW OR NO CLOUDS BELOW 12,000 FEET WITH NO
SIGNIFICANT WEATHER AND/OR OBSTRUCTIONS TO VISIBILITY.


SDZ001>005-009-010-012>017-251300-
NORTHWEST AND NORTH CENTRAL SOUTH DAKOTA

CITY           SKY/WX    TMP DP  RH WIND       PRES   REMARKS
BUFFALO          N/A     37  36  96 NE9       29.63R
FAITH            N/A     43  41  93 NE10      29.69R
MOBRIDGE       CLOUDY    45  43  93 E13       29.70S FOG
$$

SDZ012>016-024>037-041>051-057-063-072>074-251300-
SOUTHWEST AND SOUTH CENTRAL SOUTH DAKOTA

CITY           SKY/WX    TMP DP  RH WIND       PRES   REMARKS
RAPID CTY ARPT PTCLDY    40  37  89 N3        29.67R
PIERRE         CLOUDY    46  45  96 NE17G23   29.67R FOG
CUSTER         CLEAR     31  29  92 CALM      29.70R
ELLSWORTH AFB  PTCLDY    41  39  93 NE2       29.67
PHILIP         CLOUDY    46  44  93 NE12      29.68R
PINE RIDGE     FOG       38  37  97 E6        29.68R VSB 1/4
SPEARFISH      FAIR      36  30  80 SE5       29.68R
WINNER         FOG       51  49  92 NE10      29.64R VSB 3/4
$$

SDZ004>011-016>023-039-040-251300-
NORTHEAST SOUTH DAKOTA

CITY           SKY/WX    TMP DP  RH WIND       PRES   REMARKS
ABERDEEN       CLOUDY    44  41  89 NE14      29.74R FOG
WATERTOWN      CLOUDY    42  40  92 E13G24    29.71R FOG
BROOKINGS      CLOUDY    43  41  93 E14       29.70R
SISSETON         N/A     43  43 100 SE10      29.77R
$$

SDZ017-020-022-023-036>040-048>070-251300-
SOUTHEAST SOUTH DAKOTA

CITY           SKY/WX    TMP DP  RH WIND       PRES   REMARKS
SIOUX FALLS    CLOUDY    45  42  89 E17       29.66R
HURON          CLOUDY    47  44  90 E12       29.68R
CHAMBERLAIN    CLOUDY    48  46  93 NE9       29.65R
MITCHELL       LGT RAIN  49  47  93 E7        29.67R FOG
YANKTON        CLOUDY    46  43  87 E15       29.62R
$$

ABBREVIATIONS USED IN REMARKS
   TC - TEMPERATURE IN CELSIUS
  WCI - WIND CHILL INDEX
   HX - HEAT INDEX
  VSB - VISIBILITY




USA.gov is the U.S. government's official web portal to all federal, state and local government web resources and services.